Simultaneous Nadir Overpasses (SNOs) Predictions

Prediction of SNOs between LANDSAT-8 and METOP-B Satellite Orbit:

Table of predicted SNOs for the next 14.0 days since TLE Epoch: 11/5/2016
Index Date (LANDSAT-8) Time (LANDSAT-8) Lat,Lon (LANDSAT-8) SZA (LANDSAT-8 ) Date (METOP-B) Time (METOP-B) Lat,Lon (METOP-B) SZA (METOP-B ) Distance(km) Time Diff (sec)
1 11/06/2016 04:07:51 -81.06, -22.91 80.55 11/06/2016 04:06:39 -81.06, -23.02 80.59 1.88 72
2 11/06/2016 04:57:16 81.10, 145.20 99.54 11/06/2016 04:57:18 81.09, 145.08 99.52 2.14 2
3 11/06/2016 05:46:22 -81.52, -39.28 79.31 11/06/2016 05:47:36 -81.30, -38.95 79.38 24.47 74
4 11/08/2016 23:42:06 -81.06, 43.45 79.75 11/08/2016 23:41:03 -81.06, 43.36 79.79 1.52 63
5 11/09/2016 00:31:31 81.09,-148.47 100.33 11/09/2016 00:31:42 81.09,-148.58 100.33 1.79 11
6
